Starlink 30154

operational
NORAD ID: 57495 Int'l Des: 2023-113 Owner: SPXS Country: US Constellation: starlink
LEOCIRCULAR

关于 Starlink 30154

正在加载描述...

实时位置

正在加载3D地球...

即将过境

高度历史

Altitude vs Time

uPlot chart will show altitude changes over time

两行轨道根数

1 57495U 23113A 25260.30015027 -.00000813 00000-0 -45106-4 0 9997
2 57495 43.0019 239.8407 0001040 278.7105 81.3620 15.02531755117415
Epoch: Sep 17, 2025 • Age: 32 hours

当前状态

高度 562.8 km
速度 7.59 km/s
星下点 42.58°N, 81.13°E
发射日期 Aug 7, 2023
运行时间 2.1 years
类型 internet

技术详情

分类 Payload
质量 730.00 kg
干质量 700.00 kg
总质量 730.00 kg
长度 0.30 m
直径 4.10 m
跨度 29.00 m
形状 Box + pan
制造商 SPXS
平台类型 Starlink V2M
阶段状态 In Orbit
所有者/国家 SPXS/US

大型星座

Loading constellations...